TimeCDT,TemperatureF,Dew PointF,Humidity,Sea Level PressureIn,VisibilityMPH,Wind Direction,Wind SpeedMPH,Gust SpeedMPH,PrecipitationIn,Events,Conditions,WindDirDegrees,DateUTC
12:54 AM,54.0,48.9,83,30.08,10.0,SSE,5.8,-,N/A,,Clear,160,2013-10-09 05:54:00
1:54 AM,54.0,48.0,80,30.09,10.0,SSE,4.6,-,N/A,,Clear,160,2013-10-09 06:54:00
2:54 AM,51.1,46.9,86,30.09,10.0,SE,3.5,-,N/A,,Clear,140,2013-10-09 07:54:00
3:54 AM,50.0,46.0,86,30.11,10.0,SE,4.6,-,N/A,,Clear,130,2013-10-09 08:54:00
4:54 AM,50.0,46.0,86,30.12,10.0,SE,4.6,-,N/A,,Clear,140,2013-10-09 09:54:00
5:54 AM,48.9,45.0,86,30.13,10.0,SE,5.8,-,N/A,,Clear,140,2013-10-09 10:54:00
6:54 AM,48.0,45.0,89,30.13,10.0,SE,5.8,-,N/A,,Clear,140,2013-10-09 11:54:00
7:54 AM,50.0,46.0,86,30.14,10.0,SE,5.8,-,N/A,,Clear,140,2013-10-09 12:54:00
8:54 AM,54.0,46.9,77,30.14,10.0,SE,5.8,-,N/A,,Clear,130,2013-10-09 13:54:00
9:54 AM,62.1,48.9,62,30.14,10.0,SSE,5.8,-,N/A,,Clear,160,2013-10-09 14:54:00
10:54 AM,68.0,50.0,52,30.14,10.0,South,10.4,-,N/A,,Clear,180,2013-10-09 15:54:00
11:54 AM,71.1,48.0,44,30.14,10.0,South,11.5,19.6,N/A,,Clear,190,2013-10-09 16:54:00
12:54 PM,72.0,48.9,44,30.12,10.0,South,11.5,19.6,N/A,,Clear,190,2013-10-09 17:54:00
1:54 PM,73.9,48.9,41,30.12,10.0,South,11.5,18.4,N/A,,Clear,190,2013-10-09 18:54:00
2:54 PM,73.9,48.0,40,30.11,10.0,South,11.5,-,N/A,,Clear,180,2013-10-09 19:54:00
3:54 PM,73.0,46.9,39,30.11,10.0,South,12.7,23.0,N/A,,Clear,170,2013-10-09 20:54:00
4:54 PM,70.0,48.0,46,30.13,10.0,South,8.1,-,N/A,,Clear,190,2013-10-09 21:54:00
5:54 PM,68.0,48.0,49,30.13,10.0,South,9.2,-,N/A,,Clear,180,2013-10-09 22:54:00
6:54 PM,64.0,48.0,56,30.14,10.0,SSE,3.5,-,N/A,,Clear,160,2013-10-09 23:54:00
7:54 PM,61.0,48.9,64,30.14,10.0,SSE,5.8,-,N/A,,Clear,160,2013-10-10 00:54:00
8:54 PM,57.9,48.9,72,30.14,10.0,SSE,5.8,-,N/A,,Clear,150,2013-10-10 01:54:00
9:54 PM,57.0,48.9,74,30.14,10.0,SSE,5.8,-,N/A,,Clear,160,2013-10-10 02:54:00
10:54 PM,54.0,46.9,77,30.15,10.0,SSE,5.8,-,N/A,,Clear,160,2013-10-10 03:54:00
11:54 PM,52.0,46.0,80,30.14,10.0,SSE,5.8,-,N/A,,Clear,160,2013-10-10 04:54:00